Terminal Aerodrome Forecast
Issued by NWS Rapid City, SD

Home | Current Version | Previous Version | Graphics & Text | Print | Product List | Glossary On
Versions: 1 2 3 4 5 6 7 8 9 10 11 12 13 14 15 16 17 18 19 20 21 22 23 24 25 26 27 28
995
FTUS43 KUNR 212022 AAA
TAFRAP
TAF AMD
KRAP 212022Z 2120/2218 12012KT 1/4SM FZFG VV002
     FM220100 14014KT 1SM BR OVC004
     FM221000 15012KT P6SM BKN080=

USA.gov is the U.S. government's official web portal to all federal, state and local government web resources and services.